User: anonymous
Location: Seminole
(32.7190°N, 102.6440°W)
Time: 20:30:23
(UTC-05:00)
Language:

Meteor 2-10 - Orbit

View from above orbital plane
View from above orbital plane
View from above satellite
View from above satellite

Ground track
Ground track

The orbit data is extracted from the following two-line orbital elements,

1 14452U 83109A   14258.77018672  .00000087  00000-0  29469-4 0  5912
2 14452 081.1656 011.0305 0091434 057.7577 303.2423 14.26254163605691
Epoch (UTC): 15 September 2014 18:29:04
Eccentricity: 0.0091434
inclination: 81.1656°
perigee height: 738 km
apogee height: 870 km
right ascension of ascending node: 11.0305°
argument of perigee: 57.7577°
revolutions per day: 14.26254163
mean anomaly at epoch: 303.2423°
orbit number at epoch: 60569

The dashed part of the orbit path shows where the satellite is in the earth's shadow,  

DLR